This demonstration page uses our WeatherBlox Daily Observations layout. Learn more.

Left ArrowRight Arrow

44.89941, -97.11507

Hourly Observations for November 11, 2019

Temp ( °F °C ) Dew Point ( °F °C ) Humidity (%) Winds ( mph kmh ) Pressure ( in mb ) Visibility ( mi km ) Precip ( " mm )
12:53 am 00:53 Cloudy 12 -11.1 5 -15 73 73 N 16 26 30.60 1036 10 16 0.00 0.00
1:53 am 01:53 Cloudy 11 -11.7 2 -16.7 67 67 N 14 22 30.60 1036 10 16 0.00 0.00
2:53 am 02:53 Cloudy 11 -11.7 3 -16.1 70 70 N 13 20 30.62 1037 7 11 0.00 0.00
3:35 am 03:35 Cloudy with Light Snow 11 -11.7 5 -15 77 77 NNW 9 15 30.70 1040 6 10 0.00 0.00
3:53 am 03:53 Cloudy 11 -11.7 3 -16.1 70 70 NW 14 22 30.64 1038 8 13 0.00 0.00
4:31 am 04:31 Mostly Cloudy 9 -12.8 4 -15.6 80 80 NW 20 31 30.72 1040 10 16 0.00 0.00
4:53 am 04:53 Mostly Clear 7 -13.9 2 -16.7 80 80 NW 18 30 30.67 1039 10 16 0.00 0.00
5:53 am 05:53 Clear 5 -15 -1 -18.3 76 76 NW 18 30 30.68 1039 10 16 0.00 0.00
6:53 am 06:53 Clear 4 -15.6 -1 -18.3 80 80 NW 17 28 30.70 1040 10 16 0.00 0.00
7:31 am 07:31 Mostly Cloudy 4 -15.6 -1 -18.3 80 80 NW 17 28 30.78 1042 10 16 0.00 0.00
7:42 am 07:42 Partly Cloudy 5 -15 -1 -18.3 76 76 NW 20 31 30.79 1043 10 16 0.00 0.00
7:53 am 07:53 Partly Cloudy 5 -15 -1 -18.3 76 76 NW 18 30 30.71 1040 10 16 0.00 0.00
8:53 am 08:53 Mostly Cloudy 7 -13.9 0 -17.8 73 73 NW 20 31 30.73 1041 7 11 0.00 0.00
9:53 am 09:53 Mostly Cloudy 8 -13.3 -1 -18.3 66 66 NW 20 31 30.73 1041 10 16 0.00 0.00
10:17 am 10:17 Partly Cloudy 9 -12.8 -1 -18.3 64 64 NNW 22 35 30.78 1042 10 16 0.00 0.00
10:53 am 10:53 Partly Cloudy 9 -12.8 -1 -18.3 64 64 NW 18 30 30.72 1040 10 16 0.00 0.00
11:53 am 11:53 Mostly Sunny 10 -12.2 -2 -18.9 58 58 NW 21 33 30.71 1040 10 16 0.00 0.00
12:53 pm 12:53 Partly Cloudy 10 -12.2 -2 -18.9 58 58 NNW 20 31 30.70 1040 10 16 0.00 0.00
1:53 pm 13:53 Mostly Cloudy 10 -12.2 -2 -18.9 58 58 NNW 17 28 30.71 1040 10 16 0.00 0.00
2:53 pm 14:53 Cloudy 9 -12.8 -2 -18.9 61 61 NW 16 26 30.70 1040 10 16 0.00 0.00
3:00 pm 15:00 Cloudy 10 -12.2 -1 -18.3 61 61 NW 17 28 30.76 1041 10 16 0.00 0.00
3:53 pm 15:53 Partly Cloudy 9 -12.8 -4 -20 55 55 NW 17 28 30.70 1040 10 16 0.00 0.00
4:53 pm 16:53 Mostly Sunny 7 -13.9 -4 -20 60 60 NW 15 24 30.71 1040 10 16 0.00 0.00
5:53 pm 17:53 Clear 6 -14.4 -2 -18.9 69 69 NW 10 17 30.71 1040 10 16 0.00 0.00
6:53 pm 18:53 Clear 5 -15 -3 -19.4 69 69 NW 8 13 30.72 1040 10 16 0.00 0.00
7:53 pm 19:53 Clear 4 -15.6 -2 -18.9 76 76 NW 8 13 30.72 1040 10 16 0.00 0.00
8:53 pm 20:53 Clear 3 -16.1 -3 -19.4 76 76 NNW 6 9 30.71 1040 10 16 0.00 0.00
9:53 pm 21:53 Clear 3 -16.1 -3 -19.4 76 76 NW 3 6 30.71 1040 10 16 0.00 0.00
10:53 pm 22:53 Clear 2 -16.7 -3 -19.4 80 80 Calm 30.70 1040 10 16 0.00 0.00
11:53 pm 23:53 Clear 2 -16.7 -4 -20 76 76 Calm 30.66 1038 10 16 0.00 0.00

Powered by AerisWeather